Luhe — 3FVZ6 — position and weather

sailwx.info

Track history (hours):
 
Tides and Currents Weather Stations Pressure Air Temp Water Temp Dewpoint Dewpoint Depression Visibility Wind Speed Wind Dir Waves Ship Positions

Luhe

Last reported at 2014-Oct-21 23:29 UTC. Time now 2014-Oct-22 04:49 UTC.
Position S 33°58' E 151°13'.

Length 280 m; draft 11.8 m.

Type: Cargo ship. MMSI: 354812000.

Date/timePositionNaut miles runAvg speedWind from/ knotsBaromVisibWave heightAir tempDewpointWater temp
2014-Oct-21 23:29S 33°58' E 151°13'0 0.0
2014-Oct-21 22:32S 33°58' E 151°13'  
2014-Oct-19 09:22S 33°42' E 151°38'910.4
2014-Oct-19 08:33S 33°35' E 151°45'1211.6
2014-Oct-19 07:33S 33°27' E 151°54'1212.2
2014-Oct-19 06:33S 33°17' E 152°03'1313.0
2014-Oct-19 05:33S 33°07' E 152°13'1514.9
2014-Oct-19 04:33S 32°56' E 152°24'1514.9
2014-Oct-19 03:33S 32°44' E 152°36'1514.5
2014-Oct-19 02:32S 32°33' E 152°47'27013.5
2014-Oct-18 06:31S 28°08' E 153°51'1411.7
2014-Oct-18 05:19S 27°54' E 153°52'912.4
2014-Oct-18 04:33S 27°45' E 153°53'1312.5
2014-Oct-18 03:32S 27°32' E 153°54'1712.3
2014-Oct-18 02:12S 27°16' E 153°56'812.3
2014-Oct-18 01:31S 27°08' E 153°57'  
Track history (hours):
 
Tides and Currents Weather Stations Pressure Air Temp Water Temp Dewpoint Dewpoint Depression Visibility Wind Speed Wind Dir Waves Ship Positions

Luhe

Last reported at 2014-Oct-21 23:29 UTC. Time now 2014-Oct-22 04:49 UTC.
Position S 33°58' E 151°13'.

Length 280 m; draft 11.8 m.

Type: Cargo ship. MMSI: 354812000.

Date/timePositionNaut miles runAvg speedWind from/ knotsBaromVisibWave heightAir tempDewpointWater temp
2014-Oct-21 23:29S 33°58' E 151°13'0 0.0
2014-Oct-21 22:32S 33°58' E 151°13'  
2014-Oct-19 09:22S 33°42' E 151°38'910.4
2014-Oct-19 08:33S 33°35' E 151°45'1211.6
2014-Oct-19 07:33S 33°27' E 151°54'1212.2
2014-Oct-19 06:33S 33°17' E 152°03'1313.0
2014-Oct-19 05:33S 33°07' E 152°13'1514.9
2014-Oct-19 04:33S 32°56' E 152°24'1514.9
2014-Oct-19 03:33S 32°44' E 152°36'1514.5
2014-Oct-19 02:32S 32°33' E 152°47'27013.5
2014-Oct-18 06:31S 28°08' E 153°51'1411.7
2014-Oct-18 05:19S 27°54' E 153°52'912.4
2014-Oct-18 04:33S 27°45' E 153°53'1312.5
2014-Oct-18 03:32S 27°32' E 153°54'1712.3
2014-Oct-18 02:12S 27°16' E 153°56'812.3
2014-Oct-18 01:31S 27°08' E 153°57'  

Dump ship's entire track history